UAE6JL OMDB-LIRF

Flight info

Callsign UAE6JL
Flight time N/A
Altitude 37000
Route ANVIX L223 TARDI N629 BOTAM Y855 LAKLU/N0507F360 Q204 NALKI G652 TOKRA DCT ALROK DCT BOSOB DCT ITRUX Y511 PMA/N0499F380 Z712 WEJ L677 CVO L617 TANSA DCT TRL DCT OSDES UN1 LATAN DCT VEGAN/N0485F390 DCT SOR/N0486F380 DCT TEA DCT SIPRO/N0417F180 Z803 LAT
Aircraft A388/J-SADE2E3FGHIJ3J4J5M1RWXY/LB1D1

Departure

Time N/A
Airport Dubai International Airport (OMDB)

Arrival

Time 2026-05-05 16:24
Airport Rome–Fiumicino Leonardo da Vinci International Airport (LIRF)
Time Latitude Longitude Altitude Speed Heading
2026-05-05 16:14 42.13828 12.40557 8252 ft 322 kts 284°
2026-05-05 16:14 42.15024 12.34989 7594 ft 289 kts 284°
2026-05-05 16:15 42.16088 12.30135 7291 ft 249 kts 280°
2026-05-05 16:15 42.15495 12.26085 6735 ft 221 kts 231°
2026-05-05 16:16 42.13393 12.23002 5995 ft 225 kts 227°
2026-05-05 16:16 42.11286 12.19854 5287 ft 225 kts 227°
2026-05-05 16:17 42.09256 12.16826 4946 ft 211 kts 227°
2026-05-05 16:17 42.08289 12.15389 4842 ft 203 kts 227°
2026-05-05 16:18 42.06228 12.13012 4587 ft 194 kts 195°
2026-05-05 16:18 42.04856 12.12945 4492 ft 202 kts 173°
2026-05-05 16:18 42.02152 12.14005 4238 ft 203 kts 165°
2026-05-05 16:19 42.00808 12.14565 4023 ft 201 kts 165°
2026-05-05 16:19 41.99477 12.15127 3757 ft 199 kts 165°
2026-05-05 16:19 41.96887 12.16216 3232 ft 192 kts 165°
2026-05-05 16:20 41.94505 12.17216 2743 ft 175 kts 163°
2026-05-05 16:20 41.92212 12.18178 2279 ft 170 kts 163°
2026-05-05 16:21 41.90107 12.19062 1829 ft 146 kts 164°
2026-05-05 16:22 41.87514 12.20147 1309 ft 125 kts 163°
2026-05-05 16:22 41.85861 12.20836 960 ft 124 kts 161°
2026-05-05 16:23 41.84137 12.21555 634 ft 133 kts 160°
2026-05-05 16:23 41.83299 12.21912 397 ft 122 kts 164°
2026-05-05 16:23 41.81644 12.22600 95 ft 128 kts 162°
2026-05-05 16:24 41.80861 12.22928 23 ft 102 kts 162°
2026-05-05 16:24 41.80303 12.23158 25 ft 68 kts 162°
2026-05-05 16:24 41.79661 12.23439 20 ft 32 kts 157°
2026-05-05 16:25 41.79519 12.23544 21 ft 16 kts 146°
2026-05-05 16:25 41.79398 12.23705 22 ft 11 kts 132°
2026-05-05 16:25 41.79348 12.23783 22 ft 9 kts 115°
2026-05-05 16:26 41.79388 12.23868 24 ft 6 kts 351°
2026-05-05 16:26 41.79488 12.23832 22 ft 15 kts 344°
2026-05-05 16:27 41.79608 12.23784 22 ft 21 kts 343°
2026-05-05 16:27 41.79668 12.23764 22 ft 2 kts 25°
2026-05-05 16:27 41.79677 12.23780 23 ft 5 kts 72°
2026-05-05 16:27 41.79698 12.23868 22 ft 14 kts 72°
2026-05-05 16:28 41.79733 12.24008 20 ft 16 kts 69°
2026-05-05 16:28 41.79774 12.24155 21 ft 18 kts 69°
2026-05-05 16:28 41.79817 12.24303 22 ft 18 kts 69°
2026-05-05 16:28 41.79847 12.24399 23 ft 4 kts 40°
2026-05-05 16:29 41.79886 12.24426 21 ft 6 kts 46°
2026-05-05 16:29 41.79890 12.24465 21 ft 4 kts 116°
2026-05-05 16:29 41.79871 12.24493 20 ft 5 kts 134°
2026-05-05 16:29 41.79843 12.24535 23 ft 6 kts 130°
2026-05-05 16:30 41.79825 12.24562 21 ft 0 kts 131°
2026-05-05 16:30 41.79818 12.24573 22 ft 1 kts 131°
2026-05-05 16:30 41.79818 12.24574 22 ft 0 kts 131°